Siga o Apolo11 no Facebook   Siga o Apolo11 no Twiiter
Ciência, Espaço e Tecnologia




Elementos Keplerianos formato Two Line

Para que um programa de rastreio possa saber a localização exata de qualquer satélite no espaço e assim poder rastreá-lo corretamente, é necessário que ele seja carregado com algumas informações.

Estas informações são chamadas de Elementos Orbitais ou Elementos Keplerianos e consistem em 2 linhas com dezenas de números. Esses números nada mais são que os parâmetros orbitais do satélite, tais como altitude, atitude, excentricidade da órbita, número de órbitas por dia, etc.

Com base nestas informações o programa é capaz de determinar com bastante exatidão a posição de qualquer satélite no espaço e nos informar em qual horário este estará dentro do alcance de nossa estação. Para que isso seja feito com precisão é necessário que os dados estejam sempre bem atualizadas.

Devido aos parâmetros orbitais serem descritos em 2 linhas, estes formato é também conhecido internacionalmente por 2line (leia-se Two Line”).

Para atualizar seu programa de rastreio basta copiar os dados disponibilizados e fornece-los ao programa. Nossos elementos orbitais são atualizados diariamente.

NOAATodos os satélites ambientais da série NOAA
30 DiasSatélites lançados nos últimos 30 dias
ISSSatélites e foguetes relacionados à Estação Espacial Internacional
HAMSatélites construídos por radiomadores
CUBESatélites tipo cubo, com 10 centímetros de lado
METEOSatélites voltados à previsão do tempo
EDUSatélites construídos e operados por universidades
VIS100 satélites mais brilhantes que podem ser vistos a olho nú



Satélites de Radioamadores
OSCAR 7 (AO-7)          
1 07530U 74089B   23266.98004667 -.00000016  00000+0  19150-3 0  9998
2 07530 101.9579 254.3558 0011869 234.3938 191.6675 12.53667246235791
PHASE 3B (AO-10)        
1 14129U 83058B   23266.35781678 -.00000363  00000+0  00000+0 0  9996
2 14129  27.4100  21.3643 6035347 206.6629 102.2958  2.05872447274943
UOSAT 2 (UO-11)         
1 14781U 84021B   23266.49649409  .00002377  00000+0  28276-3 0  9996
2 14781  97.6687 239.6951 0006684 231.5956 128.4660 14.85282385108738
LUSAT (LO-19)           
1 20442U 90005G   23266.53202455  .00000338  00000+0  13960-3 0  9996
2 20442  98.8552 245.2008 0010656 248.9863 111.0181 14.33319686759435
EYESAT A (AO-27)        
1 22825U 93061C   23266.70276234  .00000191  00000+0  91029-4 0  9993
2 22825  98.8317 311.1376 0009222 135.7016 224.4905 14.30348102564644
ITAMSAT (IO-26)         
1 22826U 93061D   23266.54132028  .00000218  00000+0  10093-3 0  9999
2 22826  98.8263 310.8355 0009924 123.3337 236.8797 14.30713956564623
RADIO ROSTO (RS-15)     
1 23439U 94085A   23266.62509349 -.00000038  00000+0  13207-3 0  9991
2 23439  64.8135 116.4816 0159481 192.8003 166.8848 11.27575671183429
JAS-2 (FO-29)           
1 24278U 96046B   23266.82753255  .00000049  00000+0  83473-4 0  9995
2 24278  98.5411 231.9923 0350510 160.9123 200.5540 13.53154442338527
TECHSAT 1B (GO-32)      
1 25397U 98043D   23266.45708488  .00000204  00000+0  10889-3 0  9997
2 25397  98.8796 224.8085 0001082 159.2771 200.8451 14.23912090309538
ISS (ZARYA)             
1 25544U 98067A   23267.31354319  .00017826  00000+0  32403-3 0  9997
2 25544  51.6419 197.5317 0005949  54.2288  93.6779 15.49596856417165
PCSAT (NO-44)           
1 26931U 01043C   23267.10094496  .00000281  00000+0  13832-3 0  9992
2 26931  67.0506 301.4113 0007325 258.6731 101.3548 14.30987335147893
SAUDISAT 1C (SO-50)     
1 27607U 02058C   23266.58246170  .00002079  00000+0  30132-3 0  9998
2 27607  64.5565 323.2044 0058391 203.9104 155.9286 14.77648145116762
CUTE-1 (CO-55)          
1 27844U 03031E   23266.55979513  .00000562  00000+0  26965-3 0  9998
2 27844  98.6808 272.3915 0009416 194.1636 165.9280 14.22882618 49753
CUBESAT XI-IV (CO-57)   
1 27848U 03031J   23266.53484811  .00000476  00000+0  23331-3 0  9990
2 27848  98.6843 272.7436 0009008 210.3095 149.7562 14.22379144 49539
MOZHAYETS 4 (RS-22)     
1 27939U 03042A   23267.13771931  .00002350  00000+0  41176-3 0  9992
2 27939  98.2570  54.9385 0012457 178.9300 296.1005 14.68705989 69065
CUBESAT XI-V            
1 28895U 05043F   23266.29862121  .00002905  00000+0  53716-3 0  9994
2 28895  98.1665  37.7027 0017223 121.5063 238.7826 14.66054468955186
CUTE-1.7+APD II (CO-65) 
1 32785U 08021C   23267.07347062  .00005424  00000+0  52457-3 0  9995
2 32785  97.7171 231.0184 0013360 128.5749 231.6670 14.93120492835643
DELFI-C3 (DO-64)        
1 32789U 08021G   23266.60777584  .00167661  00000+0  25185-2 0  9992
2 32789  97.2927 288.4540 0008512 120.5969 239.6126 15.54254806842672
SEEDS II (CO-66)        
1 32791U 08021J   23266.84282349  .00009435  00000+0  80216-3 0  9992
2 32791  97.6655 236.1436 0013112  82.1308 278.1402 14.97992094836507
YUBILEINY (RS-30)       
1 32953U 08025A   23267.11624696  .00000049  00000+0  28097-3 0  9993
2 32953  82.4982 255.5543 0018936 332.4654  27.5421 12.43129408695948
KKS-1 (KISEKI)          
1 33499U 09002H   23267.15356214  .00002095  00000+0  30200-3 0  9999
2 33499  98.1581 160.6879 0007226 271.2926  88.7456 14.77390952789105
SWISSCUBE               
1 35932U 09051B   23266.54356261  .00001671  00000+0  37429-3 0  9990
2 35932  98.5052 139.1753 0008706  66.1779 294.0330 14.57979912743547
BEESAT-1                
1 35933U 09051C   23266.58133436  .00001455  00000+0  32812-3 0  9993
2 35933  98.4979 140.4397 0006989  77.0395 283.1583 14.57856140743625
ITUPSAT1                
1 35935U 09051E   23266.48022148  .00001319  00000+0  30478-3 0  9996
2 35935  98.5079 140.2442 0009259  81.8489 278.3758 14.56887426743303
XIWANG-1 (HOPE-1)       
1 36122U 09072B   23266.50879745 -.00000014  00000+0  76354-4 0  9990
2 36122 100.2501 227.3276 0007614   2.3855 357.7293 13.16387674661730
JUGNU                   
1 37839U 11058B   23267.13076212  .00000603  00000+0  17783-3 0  9994
2 37839  19.9605 242.6001 0018701 229.8303 212.9628 14.13012131617901
SRMSAT                  
1 37841U 11058D   23266.53625140  .00000557  00000+0  16057-3 0  9991
2 37841  19.9732 335.3786 0012003  33.0973  90.2154 14.10945584616939
M-CUBED & EXP-1 PRIME   
1 37855U 11061F   23266.99371265  .00040510  00000+0  10860-2 0  9994
2 37855 101.7104 284.9140 0107194  96.3126 265.0321 15.32178755652131
STRAND-1                
1 39090U 13009E   23266.97021663  .00000543  00000+0  20278-3 0  9990
2 39090  98.3866  97.6220 0008484 337.3347  22.7464 14.35695235553914
BEESAT-3                
1 39135U 13015F   23266.55184521  .00098311  00000+0  14580-2 0  9992
2 39135  64.8551   4.4100 0015822 262.6228  97.3118 15.54554312577167
BEESAT-2                
1 39136U 13015G   23266.52698545  .00076222  00000+0  13609-2 0  9994
2 39136  64.8657  18.1778 0027075 268.1525  91.6516 15.49202512576863
ZACUBE-1 (TSHEPISOSAT)  
1 39417U 13066B   23266.45123473  .00006525  00000+0  73746-3 0  9995
2 39417  97.6954 224.7700 0052992 326.0699  33.7131 14.85797036531782
GOMX-1                  
1 39430U 13066Q   23267.08185748  .00003794  00000+0  65487-3 0  9991
2 39430  97.7643 152.4153 0145235  20.9588 339.7485 14.62271597523980
CUBEBUG-2 (LO-74)       
1 39440U 13066AA  23266.42028722  .00005398  00000+0  68392-3 0  9997
2 39440  97.7786 212.0418 0076174  68.0267 292.9018 14.80108315528689
FUNCUBE-1 (AO-73)       
1 39444U 13066AE  23266.43025903  .00007943  00000+0  85691-3 0  9999
2 39444  97.6816 227.3941 0050594 310.1862  49.4931 14.87707170530241
UWE-3                   
1 39446U 13066AG  23267.11415865  .00006038  00000+0  72534-3 0  9993
2 39446  97.7436 218.8226 0065218  17.0821 343.2567 14.82807081529672
SPROUT                  
1 39770U 14029E   23266.93211561  .00033861  00000+0  22599-2 0  9998
2 39770  97.9953  37.4872 0005624 333.1083  26.9851 15.06933840507001
UNISAT-6                
1 40012U 14033C   23267.16738755  .00004081  00000+0  56581-3 0  9990
2 40012  97.6808  76.4277 0056297  94.6926 266.0718 14.77381982498387
DUCHIFAT-1              
1 40021U 14033M   23266.43175357  .00011404  00000+0  93009-3 0  9995
2 40021  98.0657 233.7062 0010462 305.8873  54.1377 14.99590261503904
QB50P1                  
1 40025U 14033R   23266.36117677  .00006813  00000+0  62861-3 0  9992
2 40025  98.0045 214.9766 0010259 340.3347  19.7475 14.94943018502806
ZDPS 2A                 
1 40901U 15049C   23266.57322027  .00079642  00000+0  12758-2 0  9992
2 40901  97.4373 284.6233 0009110 120.3603 239.8552 15.52785954444459
ZDPS 2B                 
1 40902U 15049D   23267.11949547  .00096041  00000+0  13836-2 0  9996
2 40902  97.4495 284.0921 0009097 119.4717 240.7446 15.55649614444551
KAITUO 1A               
1 40904U 15049F   23267.10584163  .00023137  00000+0  80568-3 0  9999
2 40904  97.5001 273.5644 0010710 174.0031 186.1339 15.29626859443417
2015-049G               
1 40905U 15049G   23267.06400045  .00009317  00000+0  40533-3 0  9993
2 40905  97.5277 269.6436 0012615 190.1511 169.9472 15.22401699442991
XW-2C                   
1 40906U 15049H   23267.06043086  .00017330  00000+0  61405-3 0  9997
2 40906  97.4956 274.7114 0011631 161.8923 198.2734 15.29109775443493
XW-2D                   
1 40907U 15049J   23267.06617563  .00022557  00000+0  73765-3 0  9994
2 40907  97.4930 275.5580 0011014 153.0210 207.1606 15.31664859443602
LILACSAT-2              
1 40908U 15049K   23267.14602094  .00008084  00000+0  36677-3 0  9997
2 40908  97.5292 270.0253 0012893 196.8074 163.2736 15.21009775442830
XW-2E                   
1 40909U 15049L   23267.16432159  .00048696  00000+0  10042-2 0  9993
2 40909  97.4497 283.1484 0010004 117.7742 242.4522 15.45687291444391
XW-2F                   
1 40910U 15049M   23267.14205873  .00050175  00000+0  10619-2 0  9999
2 40910  97.4594 282.3833 0010618 120.6317 239.5980 15.44910081444123
XW-2B                   
1 40911U 15049N   23267.14349308  .00019728  00000+0  65118-3 0  9996
2 40911  97.4908 276.0072 0010946 154.3850 205.7935 15.31393200443496
